#timestamp,LO_Frequency,Hit,StdDev 
1600489355.2,286047004.0,P
1600489375.0,286047003.5,P
1600489375.9,286047003.5,P
1600489395.8,286047005.8,Y
1600489415.6,286047002.4,P
1600489435.5,286047003.7,P
1600489455.3,286047003.0,P
1600489475.1,286047004.0,Y
1600489495.9,286047000.9,P
1600489515.7,286047000.7,N
1600489535.5,286046999.8,N
1600489555.4,286047002.5,N
1600489575.2,286047002.7,N
1600489595.1,286047001.6,N
1600489596.0,286047001.6,N
1600489615.8,286047003.8,Y
1600489635.6,286047003.0,P
1600489655.5,286047002.9,P
1600489675.3,286047003.4,P
1600489695.2,286047006.0,Y
1600489715.9,286047001.4,P
1600489735.7,286047004.0,P
1600489755.6,286047004.1,P
1600489775.4,286047003.4,Y
1600489795.2,286047001.3,P
1600489815.1,286047002.2,N
1600489816.0,286047002.2,P
1600489835.8,286047002.3,Y
1600489855.7,286046999.1,P
1600489875.5,286046998.4,N
1600489895.3,286046998.7,N
1600489915.2,286046998.9,N
1600489935.0,286046997.0,N
1600489935.9,286046997.0,N
1600489955.7,286046996.9,N
1600489975.6,286046999.5,N
1600489995.4,286046998.5,N
1600490015.3,286046998.3,N
1600490035.1,286046996.6,N
1600490036.0,286046996.6,N
1600490055.8,286046999.5,N
1600490075.7,286047001.2,N
1600490095.5,286047000.7,N
1600490115.4,286046998.7,N
1600490135.2,286046998.1,N
1600490155.0,286046999.4,N
1600490155.9,286046999.4,N
1600490175.8,286046997.9,N
1600490195.6,286046995.1,Y
1600490215.4,286046999.4,P
1600490235.3,286046996.9,P
1600490255.1,286046996.9,N
1600490275.9,286046998.4,N
1600490295.7,286046998.9,N
1600490315.5,286046998.4,N
1600490335.4,286046998.2,N
1600490355.2,286047000.5,N
1600490375.1,286047002.1,N
1600490376.0,286047002.1,N
1600490395.8,286047000.1,N
1600490415.6,286046999.8,N
1600490435.5,286047002.7,N
1600490455.3,286047000.0,N
1600490475.1,286046998.4,N
1600490495.9,286046999.8,N
1600490515.7,286047002.8,N
1600490535.6,286047003.8,N
1600490555.4,286047003.9,N
1600490575.2,286047005.4,N
1600490595.1,286047004.5,N
1600490596.0,286047004.5,N
1600490615.8,286047007.0,N
1600490635.7,286047006.6,N
1600490655.5,286047006.9,N
1600490675.3,286047008.4,N
1600490695.2,286047009.0,N
1600490715.0,286047008.9,N
1600490715.9,286047008.9,N
1600490735.8,286047008.4,N
1600490755.6,286047008.5,N
1600490775.4,286047011.1,N
1600490795.3,286047009.6,N
1600490815.1,286047011.9,N
1600490835.8,286047009.8,N
1600490855.7,286047010.2,N
1600490875.5,286047011.3,N
1600490895.4,286047013.8,Y
1600490915.2,286047004.6,P
1600490935.0,286047005.8,P
1600490935.9,286047005.8,P
1600490955.8,286047003.8,Y
1600490975.6,286046999.2,P
1600490995.5,286047001.1,N
1600491015.3,286046998.3,N
1600491035.1,286046998.3,N
1600491055.9,286047001.0,N
1600491075.7,286047001.0,N
1600491095.6,286047001.1,N
1600491115.4,286047001.0,N
1600491135.2,286046996.8,N
1600491155.1,286046997.3,N
1600491156.0,286046997.3,N
1600491175.8,286046996.9,N
1600491195.7,286047000.0,N
1600491215.5,286047000.2,N
1600491235.3,286047003.7,N
1600491255.2,286047005.9,N
1600491275.0,286047004.9,N
1600491275.9,286047004.9,N
1600491295.7,286047007.4,N
1600491315.6,286047007.3,N
1600491335.4,286047007.1,N
1600491355.3,286047007.0,N
1600491375.1,286047005.0,N
1600491395.8,286047008.0,N
1600491415.7,286047007.9,N
1600491435.5,286047010.7,N
1600491455.4,286047010.0,N
1600491475.2,286047009.5,N
1600491495.0,286047010.4,N
1600491495.9,286047010.4,N
1600491515.8,286047010.8,N
1600491535.6,286047008.7,N
1600491555.4,286047007.7,N
1600491575.3,286047008.4,N
1600491595.1,286047008.0,N
